Regional Weather Roundup
Issued by NWS Charleston, SC

Current Version | Previous Version | Graphics & Text | Print | Product List | Glossary On
Versions: 1 2 3 4 5 6 7 8 9 10 11 12 13 14 15 16 17 18 19 20 21 22 23 24 25 26 27 28 29 30 31 32 33 34 35 36 37 38 39 40 41 42 43 44 45 46 47 48 49 50
287
ASUS42 KCHS 312128
RWRCHS

REGIONAL WEATHER ROUNDUP
NATIONAL WEATHER SERVICE CHARLESTON SC
500 PM EDT TUE MAY 31 2016

NOTE: "FAIR" INDICATES FEW OR NO CLOUDS BELOW 12,000 FEET WITH NO
SIGNIFICANT WEATHER AND/OR OBSTRUCTIONS TO VISIBILITY.

NOT ALL STATIONS ARE QUALITY CONTROLLED. USE DATA WITH CAUTION...
ESPECIALLY DEWPOINT OBSERVATIONS.

SCZ027-030-031-034>040-042>050-312200-
...SOUTHEAST SOUTH CAROLINA...

CITY           SKY/WX    TMP DP  RH WIND       PRES   REMARKS
N CHARLESTON   CLOUDY    86  70  58 E8        29.87F HX  90
WATERFRONT PRK   N/A     80  74  82 E16       29.88R
MOUNT PLEASANT FAIR      81  72  74 CALM      29.88F
JOHNS ISLAND   FAIR      81  73  78 E7        29.88F
PINOPOLIS        N/A     88  73  62 NW5       29.80S HX  96
MONCKS CORNER  FAIR      84  64  51 N5        29.87F
SUMMERVILLE    FAIR      84  68  58 N3        29.89F
BEAUFORT MCAS  MOSUNNY   88  70  55 NW8       29.89F HX  93
BEAUFORT ARPT  MOCLDY    86  66  51 NW8       29.88S
HILTON HEAD IS MOSUNNY   90  73  58 SE6       29.90F HX  98
WALTERBORO     CLEAR     88  64  45 N5        29.89F
ALLENDALE      FAIR      88  68  51 VRB3      29.88S HX  91

...SOUTHERN MIDLANDS AND PEE DEE...

CITY           SKY/WX    TMP DP  RH WIND       PRES   REMARKS
GEORGETOWN     RAIN      72  70  94 CALM      29.89F
KINGSTREE      FAIR      84  68  58 NE6       29.87F
ORANGEBURG     PTSUNNY   90  66  45 VRB6      29.88F HX  92
BARNWELL       FAIR      91  73  55 CALM      29.89F HX 100
AIKEN          FAIR      88  63  42 NW7       29.92F
MANNING        FAIR      86  68  54 NE3       29.87F
COLUMBIA       MOSUNNY   90  65  43 VRB5      29.87F HX  92
SUMTER         MOSUNNY   87  66  49 N6        29.86F
FLORENCE       MOSUNNY   87  67  51 NE10      29.88F HX  90
MYRTLE BEACH   PTSUNNY   73  64  73 N7        29.90S
N MYRTLE BEACH PTSUNNY   76  71  85 NE10      29.87S

$$

GAZ063-065-086>088-099>101-113>116-118-119-134>141-150-312200-
...SOUTHEAST GEORGIA...

CITY           SKY/WX    TMP DP  RH WIND       PRES   REMARKS
SAVANNAH ARPT  PTSUNNY   86  73  65 SE8       29.88F HX  93
HUNTER AAF     MOSUNNY   85  76  73 S7        29.87S HX  94
FORT STEWART   MOSUNNY   91  67  45 NE5       29.85S HX  94
STATESBORO     SUNNY     90  70  50 NE5       29.88S HX  95
SYLVANIA       CLEAR     91  70  50 E5        29.89F HX  96
CLAXTON        FAIR      90  71  53 N6        29.87S HX  96

...CSRA...CENTRAL AND FAR SOUTHEAST GEORGIA...

CITY           SKY/WX    TMP DP  RH WIND       PRES   REMARKS
THOMSON        MOSUNNY   92  65  41 E3        29.92F HX  94
AUGUSTA-BUSH   SUNNY     87  66  49 CALM      29.88F
AUGUSTA-DANIEL SUNNY     88  66  48 SE3       29.90F HX  90
SWAINSBORO     FAIR      91  63  38 CALM      29.89S HX  92
VIDALIA        SUNNY     91  64  40 NE6       29.87F HX  93
EASTMAN        MOCLDY    93  61  33 E6        29.89F HX  93
HAZLEHURST     FAIR      93  57  30 CALM      29.87S HX  91
ALMA           CLOUDY    91  64  40 N12G20    29.87F HX  92
WAYCROSS       CLOUDY    91  61  37 NE5       29.85F HX  91
JESUP          FAIR      82  68  61 SE6       29.87S
BAXLEY         TSTM      77  64  65 SW16G23   29.87R
BRUNSWICK      CLOUDY    82  64  54 SE8       29.88F
SAINT SIMONS   MOSUNNY   80  73  79 E9        29.88F

$$

SCZ027-028-034-036>038-045-046-048>050-GAZ119-141-312200-
...LAKE AND SUPPLEMENTAL COASTAL OBSERVATIONS...

STATION/POSITION TIME  TEMP    WIND        PRES    WAVE   SWELL
                       AIR SEA DIR/SP/G            HT/PER HT/PER/DIR
                 (UTC) (F)     (DEG/KT/KT) (MB)    (FT/S) (FT/S/D)
WINYAH BAY       2045   72     340/  3     1011.0S
LAKE MURRAY      2000   85     200/  4/  6 1011.9F
ACE BASIN NERRS  2000   86      10/  2     1012.0F
FORT PULASKI     2100   79 77  160/  6/  8 1012.7F
SAPELO ISLAND    2100   80     180/  5     1013.0R

$$

ANZ835-935-AMZ111-154-330-350-352-354-370-450-454-472-312200-
...C-MAN AND BUOY OBSERVATIONS...

STATION/POSITION TIME  TEMP    WIND        PRES    WAVE   SWELL
                       AIR SEA DIR/SP/G            HT/PER HT/PER/DIR
                 (UTC) (F)     (DEG/KT/KT) (MB)    (FT/S) (FT/S/D)
BUOY 41004       2050   77 78  260/  8/ 10 1011.1F   3/ 8   3/ 8
BUOY 41008       2050   77 78  130/  8/ 10 1012.2S   3/ 8   2/130/ 8
FOLLY BEACH CMAN 2100   77     100/  6/  7 1012.1F
CAPERS NEARSHORE 2108   75 77  350/  4/  6 1013.2R
FRIPP NEARSHORE  2108   78 79  210/  8/ 10 1011.5F


STATION/POSITION TIME  TEMP    WIND        PRES    WAVE   SWELL
                       AIR SEA DIR/SP/G            HT/PER HT/PER/DIR
                 (UTC) (F)     (DEG/KT/KT) (MB)    (FT/S) (FT/S/D)
5E ST. MARYS GA  2101      81                N/A     2/ 8
FRYING PAN BUOY  2100   77 80  170/  8/ 10 1009.8F
BUOY 41025       2050   79 82  180/  4/  4 1013.2F   4/ 8   3/140/ 8
CAPE LOOKOUT NC  2100   75      50/ 14/ 15 1012.5S
BUOY 41002       2050   77 77  160/ 12/ 14 1013.9F   4/ 8   3/100/ 8
BUOY 41010       2020   80 80  190/  8/ 10 1013.7F
ST AUGUSTINE FL  2100   81 81  140/ 13/ 14 1012.8F


$$




USA.gov is the U.S. government's official web portal to all federal, state and local government web resources and services.